TimeCDT,TemperatureF,Dew PointF,Humidity,Sea Level PressureIn,VisibilityMPH,Wind Direction,Wind SpeedMPH,Gust SpeedMPH,PrecipitationIn,Events,Conditions,WindDirDegrees,DateUTC
12:15 AM,66.2,61.7,85,29.92,10.0,East,6.9,-,N/A,,Clear,90,2013-08-31 05:15:00
12:35 AM,65.5,62.1,89,29.91,10.0,East,5.8,-,N/A,,Clear,80,2013-08-31 05:35:00
12:55 AM,64.8,62.2,92,29.91,10.0,East,3.5,-,N/A,,Clear,90,2013-08-31 05:55:00
1:15 AM,64.4,62.2,93,29.92,10.0,Calm,Calm,-,N/A,,Clear,0,2013-08-31 06:15:00
1:35 AM,64.2,61.9,92,29.93,10.0,ENE,3.5,-,N/A,,Clear,60,2013-08-31 06:35:00
1:55 AM,62.6,61.0,94,29.91,10.0,NE,3.5,-,N/A,,Clear,40,2013-08-31 06:55:00
2:15 AM,61.9,60.3,94,29.91,10.0,NE,3.5,-,N/A,,Clear,50,2013-08-31 07:15:00
2:35 AM,61.7,60.6,96,29.92,10.0,NNE,3.5,-,N/A,,Clear,30,2013-08-31 07:35:00
2:55 AM,61.2,60.4,97,29.91,10.0,ENE,3.5,-,N/A,,Clear,70,2013-08-31 07:55:00
3:15 AM,61.3,60.6,97,29.90,10.0,East,3.5,-,N/A,,Clear,90,2013-08-31 08:15:00
3:35 AM,61.2,60.4,97,29.91,10.0,Calm,Calm,-,N/A,,Clear,0,2013-08-31 08:35:00
3:55 AM,60.8,60.3,98,29.91,10.0,ENE,3.5,-,N/A,,Clear,60,2013-08-31 08:55:00
4:15 AM,60.6,59.9,97,29.90,10.0,East,3.5,-,N/A,,Clear,80,2013-08-31 09:15:00
4:35 AM,60.8,60.3,98,29.90,10.0,ESE,4.6,-,N/A,,Clear,110,2013-08-31 09:35:00
4:55 AM,61.0,59.9,96,29.91,10.0,Calm,Calm,-,N/A,,Clear,0,2013-08-31 09:55:00
5:15 AM,60.1,59.7,99,29.91,10.0,Calm,Calm,-,N/A,,Clear,0,2013-08-31 10:15:00
5:35 AM,59.9,59.5,99,29.90,10.0,Calm,Calm,-,N/A,,Clear,0,2013-08-31 10:35:00
5:55 AM,59.9,59.7,99,29.90,10.0,Calm,Calm,-,N/A,,Clear,0,2013-08-31 10:55:00
6:15 AM,59.7,59.4,99,29.90,10.0,Calm,Calm,-,N/A,,Clear,0,2013-08-31 11:15:00
6:35 AM,60.1,59.9,99,29.90,10.0,East,3.5,-,N/A,,Clear,90,2013-08-31 11:35:00
6:55 AM,60.3,59.9,99,29.89,10.0,East,4.6,-,N/A,,Clear,100,2013-08-31 11:55:00
7:15 AM,61.2,60.6,98,29.89,10.0,Calm,Calm,-,N/A,,Clear,0,2013-08-31 12:15:00
7:35 AM,61.7,60.8,97,29.89,10.0,Calm,Calm,-,N/A,,Clear,0,2013-08-31 12:35:00
7:55 AM,62.6,61.7,97,29.89,10.0,Calm,Calm,-,N/A,,Clear,0,2013-08-31 12:55:00
8:15 AM,63.5,61.7,94,29.89,10.0,SE,4.6,-,N/A,,Clear,130,2013-08-31 13:15:00
8:35 AM,64.2,62.2,93,29.89,10.0,SE,5.8,-,N/A,,Clear,130,2013-08-31 13:35:00
8:55 AM,66.6,63.0,88,29.88,10.0,SSE,4.6,-,N/A,,Clear,150,2013-08-31 13:55:00
9:15 AM,69.3,63.7,82,29.89,10.0,SSE,5.8,-,N/A,,Clear,160,2013-08-31 14:15:00
9:35 AM,71.8,63.9,76,29.88,10.0,SSE,6.9,-,N/A,,Clear,160,2013-08-31 14:35:00
9:55 AM,72.9,62.2,69,29.87,10.0,ESE,5.8,-,N/A,,Clear,120,2013-08-31 14:55:00
10:15 AM,73.6,62.4,68,29.88,10.0,SSE,3.5,-,N/A,,Clear,160,2013-08-31 15:15:00
10:35 AM,74.5,62.6,66,29.87,10.0,SE,4.6,-,N/A,,Clear,140,2013-08-31 15:35:00
10:55 AM,75.6,62.4,64,29.87,10.0,SSW,3.5,-,N/A,,Clear,200,2013-08-31 15:55:00
11:15 AM,75.9,62.6,63,29.87,10.0,SSE,3.5,-,N/A,,Clear,160,2013-08-31 16:15:00
11:35 AM,76.8,63.0,62,29.86,10.0,SSW,4.6,-,N/A,,Clear,200,2013-08-31 16:35:00
11:55 AM,78.8,63.1,59,29.86,10.0,SSE,3.5,-,N/A,,Clear,150,2013-08-31 16:55:00
12:15 PM,78.8,63.0,58,29.86,10.0,SSW,4.6,-,N/A,,Clear,200,2013-08-31 17:15:00
12:35 PM,79.9,62.8,56,29.86,10.0,SE,5.8,-,N/A,,Clear,140,2013-08-31 17:35:00
12:55 PM,81.0,62.8,54,29.86,10.0,South,4.6,-,N/A,,Scattered Clouds,190,2013-08-31 17:55:00
1:15 PM,82.9,62.6,50,29.84,10.0,South,8.1,-,N/A,,Scattered Clouds,170,2013-08-31 18:15:00
1:35 PM,82.8,62.1,49,29.84,10.0,South,4.6,-,N/A,,Clear,190,2013-08-31 18:35:00
1:55 PM,84.4,60.8,45,29.84,10.0,SW,4.6,-,N/A,,Clear,220,2013-08-31 18:55:00
2:15 PM,84.6,61.9,46,29.84,10.0,SW,4.6,-,N/A,,Clear,230,2013-08-31 19:15:00
2:35 PM,84.6,61.3,45,29.83,10.0,SSW,3.5,-,N/A,,Clear,200,2013-08-31 19:35:00
2:55 PM,86.2,61.2,43,29.82,10.0,SW,10.4,-,N/A,,Clear,230,2013-08-31 19:55:00
3:15 PM,86.4,60.1,41,29.82,10.0,SW,3.5,-,N/A,,Clear,220,2013-08-31 20:15:00
3:35 PM,86.9,61.5,42,29.81,10.0,SSW,8.1,-,N/A,,Clear,200,2013-08-31 20:35:00
3:55 PM,86.2,61.3,43,29.80,10.0,SW,6.9,-,N/A,,Clear,230,2013-08-31 20:55:00
4:15 PM,87.6,61.9,42,29.80,10.0,WSW,8.1,-,N/A,,Clear,240,2013-08-31 21:15:00
4:35 PM,86.9,61.3,42,29.80,10.0,SW,8.1,-,N/A,,Clear,230,2013-08-31 21:35:00
4:55 PM,86.9,61.2,42,29.79,10.0,SW,6.9,-,N/A,,Clear,230,2013-08-31 21:55:00
5:15 PM,86.4,61.9,44,29.77,10.0,SSW,8.1,-,N/A,,Clear,200,2013-08-31 22:15:00
5:35 PM,85.8,61.7,44,29.76,10.0,SSW,6.9,-,N/A,,Clear,210,2013-08-31 22:35:00
5:55 PM,83.3,63.0,50,29.79,10.0,South,9.2,-,N/A,,Clear,180,2013-08-31 22:55:00
6:15 PM,82.6,63.7,53,29.80,10.0,SW,6.9,-,N/A,,Clear,220,2013-08-31 23:15:00
6:35 PM,81.5,64.4,56,29.81,10.0,SSW,6.9,-,N/A,,Clear,210,2013-08-31 23:35:00
6:55 PM,81.0,64.6,57,29.80,10.0,SSW,6.9,-,N/A,,Clear,200,2013-08-31 23:55:00
7:15 PM,80.2,64.9,59,29.81,10.0,SSW,5.8,-,N/A,,Clear,200,2013-09-01 00:15:00
7:35 PM,79.3,65.5,62,29.82,10.0,SW,4.6,-,N/A,,Clear,230,2013-09-01 00:35:00
7:55 PM,78.4,65.7,65,29.85,10.0,SW,5.8,-,N/A,,Scattered Clouds,230,2013-09-01 00:55:00
8:15 PM,77.9,65.8,66,29.85,10.0,WSW,4.6,-,N/A,,Scattered Clouds,240,2013-09-01 01:15:00
8:35 PM,78.4,65.3,64,29.85,10.0,West,12.7,19.6,N/A,,Scattered Clouds,280,2013-09-01 01:35:00
8:55 PM,77.7,61.7,58,29.86,10.0,WNW,12.7,26.5,N/A,,Scattered Clouds,290,2013-09-01 01:55:00
9:15 PM,72.9,59.7,63,29.84,10.0,West,11.5,19.6,N/A,Rain,Light Rain,260,2013-09-01 02:15:00
9:35 PM,72.5,59.0,62,29.79,10.0,South,4.6,-,N/A,,Scattered Clouds,190,2013-09-01 02:35:00
9:55 PM,72.0,59.0,64,29.78,10.0,SSW,4.6,-,N/A,,Clear,200,2013-09-01 02:55:00
10:15 PM,72.0,58.5,62,29.77,10.0,SSE,3.5,-,N/A,,Clear,160,2013-09-01 03:15:00
10:35 PM,71.6,58.5,63,29.76,10.0,South,4.6,-,N/A,,Clear,180,2013-09-01 03:35:00
10:55 PM,71.2,58.6,64,29.75,10.0,South,8.1,-,N/A,,Clear,170,2013-09-01 03:55:00
11:15 PM,70.9,59.2,66,29.75,10.0,SSE,4.6,-,N/A,,Clear,160,2013-09-01 04:15:00
11:35 PM,70.0,59.4,69,29.74,10.0,ESE,4.6,-,N/A,,Clear,110,2013-09-01 04:35:00
11:55 PM,69.8,59.4,69,29.76,10.0,West,3.5,-,N/A,,Clear,260,2013-09-01 04:55:00